Wind_Speed
40 43 44 44 44 45 46 50 53 53 52 51 51 53 58 62 66 68 69 70 70 70 68 67 63 57 58 60 59 55 53 52 52 52 52 55 57 56 54 54 54 54 54 54 54 54 54 54 54 55 54 54 54 52 52 51 51 49 49 48 48 48 49 50 49 49 48 48 49 49 48 46 45 46 46 44 43 44 45 45 45 45 44 43 43
40 42 43 44 44 44 45 47 49 51 52 54 54 53 53 56 59 63 68 70 70 70 69 70 71 65 59 58 59 56 53 52 50 49 49 52 56 56 57 58 58 58 58 57 57 57 56 56 56 56 56 57 56 55 55 54 52 51 51 51 50 51 51 51 51 51 50 50 52 52 50 47 47 49 48 46 45 46 47 48 48 48 47 46 46
43 44 44 44 44 44 45 46 47 48 49 52 55 56 56 55 55 57 60 65 68 70 70 70 72 74 71 66 62 58 54 51 47 46 47 48 55 58 60 62 62 61 61 61 61 61 60 59 59 59 58 58 58 57 57 57 55 54 54 54 53 53 53 53 53 53 53 53 54 53 51 50 50 51 50 49 49 49 49 49 50 50 50 49 49
47 46 47 47 45 44 45 46 47 47 47 48 50 53 57 58 57 56 56 58 62 66 70 71 71 72 72 71 69 66 61 52 43 42 43 44 50 56 60 63 65 65 63 63 64 64 64 63 62 62 61 60 60 59 59 58 57 57 57 56 55 55 55 54 54 54 55 55 55 53 52 53 52 51 51 52 52 51 51 51 52 53 52 52 52
51 50 49 49 49 47 46 47 48 47 47 47 47 48 52 55 58 59 58 58 58 60 64 69 71 71 70 68 67 67 66 60 50 45 44 42 40 43 51 57 60 64 66 66 66 66 66 67 66 65 65 64 63 62 61 60 59 58 58 57 57 57 56 56 56 56 57 57 56 55 54 54 53 53 54 55 54 53 53 53 54 55 55 55 55
56 54 53 52 52 51 50 49 49 49 48 48 48 48 48 51 55 58 60 60 60 59 60 62 65 67 69 69 67 66 66 64 59 51 46 43 39 36 43 51 53 55 61 64 66 67 67 68 69 69 68 67 66 65 64 63 61 60 59 58 58 59 58 58 58 58 58 58 58 57 56 55 55 55 56 57 56 56 56 56 56 56 58 58 57
58 57 56 56 55 55 54 53 52 51 51 50 49 49 49 49 51 54 57 59 60 60 60 60 60 60 63 65 67 67 66 66 65 60 50 43 44 44 45 51 54 50 51 56 59 62 65 67 69 69 68 68 67 66 65 65 63 62 61 60 60 60 60 59 58 58 58 59 58 57 57 56 56 56 55 57 59 59 58 58 58 59 60 61 60
60 59 59 59 59 58 58 57 56 54 53 53 52 51 50 49 49 50 52 55 57 59 61 61 61 59 59 61 63 65 67 67 68 70 64 50 48 53 55 58 60 52 50 53 54 55 56 59 64 67 68 69 68 67 66 66 65 64 63 62 62 62 61 60 59 59 59 59 59 59 58 56 56 57 57 60 62 61 61 60 59 61 61 61 62
61 61 61 61 61 61 60 60 59 58 57 56 55 54 53 52 51 50 51 53 54 56 58 60 62 62 61 60 60 61 64 67 67 71 74 67 59 59 61 65 64 57 55 57 56 53 50 49 52 56 59 62 65 68 68 67 66 65 65 64 63 63 63 62 61 61 61 61 61 60 59 57 57 57 59 64 66 65 65 64 63 63 64 64 63
62 62 62 62 63 62 63 62 62 61 60 59 58 58 57 57 55 53 52 53 54 55 56 57 60 63 64 63 63 62 62 64 66 67 71 73 70 66 62 64 66 62 59 60 60 58 55 53 51 51 52 52 55 60 63 66 66 65 64 64 64 64 64 63 62 62 62 62 61 60 59 58 57 57 58 63 65 65 66 67 67 66 63 62 62
61 63 63 63 64 64 64 64 64 63 63 62 61 60 60 60 59 58 56 55 55 55 55 56 58 60 63 64 65 66 65 63 64 65 66 68 72 74 70 66 65 63 58 59 62 62 62 61 58 56 56 56 57 57 58 60 61 61 61 61 60 60 60 61 61 61 61 61 59 58 57 56 56 57 56 58 62 64 67 69 69 66 63 61 60
61 62 63 64 64 65 66 65 65 65 65 64 64 63 62 62 62 61 60 59 58 57 57 57 57 58 60 62 64 66 67 67 66 66 66 66 68 74 76 74 71 68 63 60 60 62 64 66 65 61 57 58 60 61 60 60 58 58 59 59 58 58 58 59 60 60 60 59 58 56 55 55 55 56 56 58 62 66 67 68 68 66 65 63 62
63 63 63 64 64 65 66 67 67 67 66 66 65 65 65 65 65 65 63 62 61 60 60 59 58 59 59 60 63 64 65 66 68 68 68 68 68 70 74 76 76 76 73 70 66 63 64 66 67 66 63 61 61 62 64 65 64 63 63 62 62 62 60 60 61 61 61 61 61 60 59 58 57 56 57 59 62 64 65 66 67 66 64 64 65
66 65 64 64 65 66 66 67 68 68 68 67 67 66 66 66 67 67 67 66 65 64 63 63 61 61 60 60 61 63 63 64 66 68 69 70 70 70 71 72 74 76 77 78 77 73 71 70 71 71 71 69 68 68 70 71 71 69 68 67 66 66 65 64 64 64 63 63 64 63 60 60 60 56 55 57 60 64 67 67 68 68 67 67 68
70 69 68 67 66 66 66 67 68 69 70 70 69 68 67 67 68 68 69 68 68 67 66 66 65 64 63 63 62 63 64 64 64 66 67 69 71 72 72 72 73 74 75 76 78 78 78 77 77 76 75 73 72 72 72 73 73 72 72 71 70 68 66 65 66 66 66 65 64 64 61 60 61 59 57 58 61 64 67 67 66 67 68 67 65
73 72 70 70 69 68 68 68 69 69 70 71 71 70 69 68 69 69 70 70 69 69 69 68 67 67 66 65 65 65 65 65 65 65 66 67 68 70 71 73 74 75 75 75 76 77 78 77 76 75 75 75 74 73 72 71 71 72 72 72 71 70 68 65 65 65 66 66 65 64 63 62 63 62 61 62 64 66 68 68 67 69 72 69 64
76 75 72 72 73 72 72 71 71 71 71 72 72 72 71 71 71 71 71 71 71 71 71 70 69 69 69 68 68 67 67 67 66 66 67 67 67 68 69 71 73 75 76 76 77 77 78 78 78 76 75 75 75 75 74 73 72 71 71 71 71 71 72 71 69 66 65 66 65 64 64 65 65 66 64 65 67 70 73 74 75 78 81 77 74
78 77 76 76 75 75 76 75 75 74 74 74 74 74 74 73 73 73 73 73 73 73 72 72 72 71 71 70 70 70 69 69 68 68 69 68 68 68 69 70 71 73 75 77 78 79 80 80 80 80 77 75 75 75 75 75 75 74 73 73 72 72 73 73 74 73 71 71 70 68 67 68 69 69 69 69 70 73 76 78 81 84 86 84 83
80 79 79 79 78 78 78 78 78 77 77 77 77 76 76 77 76 76 75 74 74 74 74 74 74 74 73 72 72 72 72 71 71 71 70 70 70 69 70 71 72 73 74 77 79 80 82 83 83 82 81 79 78 76 75 75 75 75 75 75 75 74 74 74 75 76 77 77 77 75 74 74 74 74 74 74 75 77 78 81 85 88 88 88 88
82 81 80 80 80 80 80 80 80 79 79 79 79 79 79 79 79 78 77 77 76 76 76 76 76 76 75 75 75 74 74 73 73 73 72 72 72 72 71 71 72 73 74 77 80 82 83 83 83 83 83 82 82 80 79 78 76 76 75 75 76 76 76 76 76 77 78 79 79 79 78 78 79 79 79 80 80 81 79 79 82 86 87 87 88
83 83 82 81 81 81 81 81 81 81 80 79 79 80 81 80 80 80 79 79 79 78 77 77 77 77 77 77 77 76 75 75 75 74 74 73 73 73 72 72 72 72 74 76 79 80 82 83 84 84 84 84 84 84 83 82 81 79 78 78 77 77 78 78 78 78 78 79 80 81 80 80 80 81 82 82 83 84 83 82 82 82 83 84 85
84 84 84 83 82 82 82 81 81 81 81 81 80 80 81 81 81 81 81 81 80 80 79 79 78 78 78 77 77 77 77 76 76 75 74 74 74 73 73 73 73 73 74 76 77 79 81 82 83 83 84 84 85 85 85 84 84 83 83 82 81 80 80 80 80 80 81 81 82 84 84 84 83 84 85 85 85 85 88 90 90 88 86 86 86
86 85 85 85 84 84 83 82 81 81 81 81 81 80 80 81 81 82 82 82 82 81 81 80 80 79 78 78 78 78 78 77 77 76 75 75 75 75 74 74 73 74 74 75 77 79 81 82 83 83 84 85 86 86 86 86 85 85 85 85 85 84 83 83 82 82 82 83 84 85 87 88 88 89 90 90 89 88 89 91 93 93 92 91 90
86 86 86 86 86 85 84 84 84 82 81 81 81 80 80 80 81 81 81 81 82 82 82 81 81 80 79 79 79 78 78 78 78 77 76 76 75 75 75 75 74 74 75 75 77 78 80 82 83 84 84 85 86 87 87 87 87 87 87 86 87 86 86 86 86 85 85 85 85 86 87 89 90 92 93 94 94 93 93 93 95 96 97 96 95
87 88 88 87 87 86 85 85 85 85 83 82 81 80 80 79 79 80 80 81 81 81 81 82 81 81 81 80 80 79 79 79 78 78 77 77 76 75 75 75 75 75 76 76 77 78 80 82 83 84 85 86 87 87 87 88 88 88 88 87 87 87 88 88 88 89 88 88 88 87 88 88 89 90 92 94 96 97 98 98 99 100 101 101 101
87 88 89 89 88 88 87 86 85 85 85 83 82 80 80 79 78 78 78 79 79 79 79 80 81 81 80 80 79 79 78 78 78 78 77 77 76 76 75 75 75 75 76 76 77 78 80 81 83 84 85 86 88 88 87 87 88 88 88 88 87 87 87 88 88 89 89 90 90 90 90 90 89 89 90 90 92 94 96 98 99 100 101 102 102
86 87 88 89 89 89 89 89 87 86 85 84 83 81 79 78 77 76 76 76 77 77 77 77 78 78 78 78 77 77 76 76 76 76 76 75 75 74 75 75 75 75 76 76 77 78 80 81 82 84 85 86 87 88 87 87 87 87 87 87 87 87 87 87 88 88 88 89 89 89 90 90 90 91 90 90 90 90 91 92 93 94 95 96 97
84 84 84 84 87 89 89 89 89 88 87 86 85 83 80 78 77 76 74 74 74 74 74 74 75 75 75 75 75 74 74 73 73 72 73 73 73 73 73 73 74 75 75 76 77 78 79 80 82 83 84 86 86 86 86 85 85 85 85 85 85 85 86 86 86 87 87 87 87 88 88 88 88 89 90 90 90 90 90 90 90 90 90 91 91
82 82 80 78 79 83 86 87 88 88 88 86 85 84 82 79 77 75 74 73 72 72 72 72 73 73 73 73 72 72 72 71 70 70 70 71 71 72 72 72 73 73 74 75 76 77 78 79 80 81 82 83 84 84 83 83 83 83 83 83 83 83 84 84 84 84 85 85 85 86 86 86 86 86 86 86 87 88 88 88 88 88 88 88 88
79 79 79 76 73 73 76 80 83 84 85 85 84 83 82 80 77 74 73 72 72 71 70 71 71 72 72 71 71 70 70 70 69 69 69 69 69 70 71 72 72 72 73 74 75 76 77 77 78 79 79 80 80 80 80 80 79 79 80 80 80 81 81 81 81 81 81 82 82 82 82 83 83 82 82 82 81 82 82 83 84 84 84 85 84
74 73 72 71 69 68 68 70 73 76 78 79 80 80 81 79 77 74 71 70 70 70 70 70 70 71 71 71 71 70 69 69 69 69 68 68 69 69 70 70 71 71 72 72 72 73 74 74 75 75 75 76 76 76 76 76 76 76 76 76 77 77 77 77 77 77 77 77 77 78 78 78 78 78 78 78 78 77 77 77 78 78 79 79 80
75 72 69 66 63 65 68 68 69 70 72 74 76 76 77 77 76 73 70 68 68 68 68 69 69 70 71 72 72 71 70 69 68 69 69 68 68 68 68 69 69 69 69 69 69 69 70 70 70 71 72 72 73 73 73 72 72 72 72 72 73 73 73 73 73 73 72 72 72 72 72 73 73 73 74 74 74 74 74 74 73 73 73 74 75
80 79 76 69 62 62 66 69 70 70 69 70 71 70 69 69 69 68 67 66 66 67 67 68 69 70 70 71 72 71 71 70 68 68 68 67 67 67 67 67 68 67 67 67 67 67 66 66 67 68 68 69 69 69 69 69 69 68 68 68 68 69 69 69 70 70 69 69 68 68 68 68 68 69 69 69 70 70 71 71 71 70 70 70 71
79 80 79 74 67 63 63 65 66 66 63 61 62 64 63 60 59 59 60 61 62 65 67 68 69 70 71 71 71 71 70 70 69 68 67 67 67 66 66 66 67 67 66 66 65 65 64 64 64 65 65 65 66 66 66 66 65 65 64 64 64 64 65 65 66 66 66 66 66 66 66 65 65 65 66 66 66 67 67 68 69 69 69 70 70
73 75 75 72 69 67 65 62 60 59 58 55 55 57 57 54 53 53 54 56 58 61 65 68 69 70 70 70 70 71 70 69 69 68 67 67 67 67 66 66 66 66 66 66 65 64 63 62 62 62 63 63 63 64 64 64 63 63 62 62 62 62 62 62 63 63 64 64 64 64 64 64 64 64 64 64 64 65 65 65 66 67 68 69 69
65 67 70 69 67 66 67 66 62 59 57 55 54 54 53 52 52 53 54 53 56 58 61 64 66 68 69 69 68 69 69 69 69 68 68 68 67 67 66 66 66 66 66 65 64 63 62 61 61 61 62 62 62 62 62 62 62 62 62 62 62 62 62 62 62 62 62 62 63 63 63 63 63 63 63 63 63 63 64 64 65 65 66 67 67
58 58 61 63 64 63 63 64 61 58 57 55 53 52 53 54 53 53 54 53 53 54 55 55 58 61 64 67 67 67 67 67 67 67 67 67 67 66 65 66 66 66 65 64 63 63 62 61 61 61 61 61 61 61 62 62 62 61 61 61 61 61 61 61 61 61 61 61 61 61 62 62 62 62 62 62 63 63 63 63 63 64 65 66 66
54 51 51 54 57 59 61 59 55 53 52 51 50 50 53 56 54 50 52 54 52 49 49 49 50 53 57 62 65 66 66 66 65 66 66 66 65 65 65 66 66 65 64 63 63 62 62 62 61 61 61 61 61 61 61 61 61 61 61 61 61 61 61 61 61 61 61 61 61 61 61 61 61 61 61 61 62 62 62 63 63 63 64 65 66
52 48 48 49 50 54 59 59 55 52 52 51 51 50 51 55 54 49 49 54 54 50 47 46 47 49 51 54 58 61 63 63 63 63 64 63 62 62 64 65 64 63 63 63 62 62 61 61 61 61 61 61 61 61 61 61 61 61 61 61 61 60 60 60 59 59 59 59 59 59 60 60 60 60 61 61 62 62 62 63 63 64 64 65 65
51 46 47 48 47 49 52 54 53 52 53 54 54 51 49 50 52 49 48 52 54 52 49 46 46 48 49 50 53 56 58 59 59 60 59 58 58 60 62 62 61 60 60 60 60 59 59 59 59 59 60 60 60 60 60 60 60 60 60 60 60 59 59 58 58 57 57 57 58 58 59 59 60 60 61 62 62 63 63 64 64 65 65 66 66
51 45 43 43 44 45 47 49 51 49 49 53 55 52 48 47 49 49 48 49 52 53 51 48 47 49 51 50 49 52 53 54 55 55 55 55 56 58 58 58 57 57 57 57 57 57 57 58 58 58 58 58 58 58 58 58 58 58 57 57 57 57 57 57 57 57 57 57 57 58 58 59 60 61 62 63 63 64 65 65 66 67 68 68 68
49 43 39 37 37 39 41 46 51 51 47 50 53 52 48 46 45 47 49 50 51 52 53 51 48 49 54 54 50 50 52 52 52 53 54 56 57 57 56 55 54 55 55 55 55 55 56 56 56 55 55 55 55 55 54 54 54 54 54 54 55 55 56 56 56 57 57 58 58 59 60 60 61 62 63 64 65 66 66 67 68 69 69 70 70
49 42 38 36 35 37 39 41 47 52 50 50 52 52 50 48 44 44 48 51 51 50 52 52 49 48 53 57 55 52 53 54 54 56 57 56 56 55 54 54 54 54 55 55 55 54 54 55 55 54 54 53 52 52 52 52 53 53 53 53 54 54 55 55 56 57 58 59 60 60 61 62 63 64 65 66 66 67 67 68 69 69 70 70 71
48 42 39 38 38 39 39 38 41 46 49 50 51 50 51 50 46 43 45 48 48 48 48 50 49 47 49 55 58 58 57 56 56 58 58 57 55 55 55 55 55 56 57 58 57 56 55 55 54 53 52 51 52 52 53 53 53 53 53 54 54 55 55 56 56 57 58 59 60 61 62 63 64 65 65 66 67 68 68 69 69 70 71 71 72
46 41 40 41 40 38 37 35 35 38 43 47 47 45 46 47 45 42 44 45 46 45 45 45 46 46 47 51 56 59 60 60 60 60 60 58 58 57 57 57 57 57 58 58 58 56 55 55 54 54 54 54 54 55 55 55 55 55 55 55 56 56 57 57 58 58 59 60 61 62 63 63 64 65 65 66 67 68 68 69 70 71 71 72 73
44 40 40 40 38 36 35 33 31 32 37 42 44 43 42 43 42 41 41 42 42 43 43 43 43 45 47 51 54 57 58 59 60 60 60 59 59 59 59 60 59 59 58 57 56 56 56 56 56 56 56 56 56 57 58 58 58 58 58 58 58 59 59 58 59 60 61 62 62 62 63 63 64 65 65 66 66 67 68 69 70 71 72 73 74
42 40 39 38 37 36 36 34 31 30 32 37 42 42 41 41 40 38 38 38 39 40 42 43 43 44 47 51 53 55 56 56 57 57 57 57 58 58 58 58 57 56 55 54 54 54 55 55 56 57 57 57 58 59 59 60 60 59 60 60 60 60 60 60 61 62 63 62 62 62 63 63 64 65 65 66 66 67 68 69 70 71 72 73 75
42 40 37 36 36 37 36 34 33 32 31 33 35 37 38 37 36 36 36 36 36 37 39 40 41 42 45 48 50 51 52 53 53 53 54 54 54 54 54 54 53 53 52 53 54 54 55 56 57 58 58 58 59 59 59 59 60 60 60 60 60 61 61 62 63 63 63 62 62 62 62 63 64 64 65 66 67 67 68 69 71 72 73 74 76
42 41 36 32 33 36 36 36 35 34 34 33 31 30 31 32 33 33 34 35 35 35 35 36 37 39 41 44 46 47 48 49 50 50 51 51 52 52 52 52 52 51 51 52 53 54 55 56 56 57 58 58 58 59 59 60 60 60 60 61 61 61 62 62 63 63 63 62 62 63 64 64 65 66 66 67 68 69 70 71 72 74 75 76 77
42 42 37 31 30 33 35 37 37 36 35 35 32 28 27 28 30 31 32 33 34 34 35 35 36 37 39 41 43 44 45 46 47 47 47 48 48 48 48 48 48 48 49 50 52 53 54 55 56 57 57 57 58 59 59 60 60 60 61 61 61 61 61 62 62 63 63 63 63 64 65 66 67 68 68 69 70 71 72 74 75 76 77 78 79
40 42 39 33 30 30 32 35 36 36 36 35 32 29 27 27 28 30 32 34 35 36 37 38 38 39 40 41 43 44 45 45 45 45 45 46 46 46 46 47 47 48 50 51 52 53 54 55 56 56 56 57 57 58 58 59 59 60 60 60 60 61 61 62 63 63 64 64 65 66 67 68 69 70 71 71 73 73 74 75 77 78 79 80 81
Wind_Direction
261 262 258 254 252 251 252 252 248 244 240 236 233 233 235 236 236 236 236 235 235 235 232 231 231 226 222 223 225 229 234 236 239 244 247 246 244 243 244 247 248 249 251 252 253 254 254 254 254 254 255 255 255 254 254 254 254 255 255 255 256 256 257 259 259 260 261 262 263 263 264 265 266 266 267 268 270 272 273 273 274 275 275 275 275
258 260 260 259 256 254 253 253 252 250 247 244 239 235 234 234 235 235 236 236 236 236 234 232 232 231 227 223 221 223 227 230 236 245 248 247 247 246 247 248 249 249 250 251 251 252 252 252 252 253 254 255 255 255 255 255 255 255 255 255 255 256 257 258 259 260 260 261 262 263 265 266 267 267 268 270 270 271 273 274 275 275 276 276 276
256 257 258 258 258 257 256 254 254 254 252 250 247 242 238 235 234 234 234 235 236 236 235 233 233 235 236 234 229 224 222 225 235 246 250 250 250 249 248 248 249 249 249 251 251 251 252 252 252 253 253 254 255 256 256 256 255 255 255 256 256 256 257 258 259 261 261 261 262 264 266 267 268 269 271 272 271 271 272 274 275 275 276 276 276
254 254 256 256 256 256 257 256 255 254 254 254 253 250 247 242 239 236 234 233 234 235 236 235 233 234 236 238 237 234 230 228 233 240 243 247 251 251 249 248 248 249 249 249 250 251 251 252 253 253 253 253 254 255 256 256 256 255 256 256 257 257 258 260 261 262 263 264 265 266 267 268 269 270 271 272 272 273 273 273 274 274 275 275 275
251 252 254 255 256 255 255 256 256 256 255 254 254 254 253 251 247 244 240 237 234 234 235 236 235 235 234 235 236 236 235 231 231 233 231 232 241 249 249 248 248 249 249 249 250 250 251 251 252 252 253 253 254 254 255 256 256 256 257 258 259 259 260 261 262 263 265 266 267 267 268 269 270 270 270 271 272 273 273 273 273 274 274 275 275
251 251 252 253 254 255 254 254 255 255 255 254 254 254 254 254 253 251 247 244 241 238 236 235 235 235 235 235 234 234 234 232 228 227 222 214 214 225 236 242 246 247 248 250 250 250 249 249 250 250 251 252 253 254 255 256 256 257 258 259 260 261 261 261 262 263 265 265 266 267 268 269 270 270 271 272 271 271 271 272 272 272 273 274 274
251 250 250 251 252 253 254 254 254 254 254 254 254 254 254 254 255 255 253 251 249 247 243 239 236 235 234 235 235 234 233 232 227 224 220 210 209 217 226 236 243 243 243 246 248 248 248 248 248 249 249 250 252 253 255 256 257 258 259 259 260 261 262 262 262 263 264 265 266 267 268 269 270 271 271 271 271 271 270 271 271 271 271 273 274
252 250 250 250 251 252 252 253 253 253 254 254 255 254 254 253 253 254 255 255 254 253 251 247 243 239 236 234 235 234 233 232 229 225 224 220 218 225 232 238 242 242 240 240 242 243 245 247 248 248 249 250 250 250 252 253 255 257 258 259 260 262 262 263 263 263 263 263 265 265 266 266 267 269 270 270 270 270 270 271 270 270 271 272 273
251 251 251 250 250 250 251 251 252 252 252 253 254 254 253 253 252 252 254 255 255 255 254 253 250 246 242 239 236 235 233 232 231 228 228 228 227 230 236 239 240 241 241 240 240 239 238 240 245 247 248 250 251 250 250 251 252 254 257 258 259 260 261 262 263 263 262 262 262 263 264 265 266 267 269 270 270 271 271 271 269 269 270 271 272
250 250 250 250 250 249 250 250 250 251 251 252 252 253 253 254 253 252 252 253 254 255 254 254 253 251 249 246 242 239 236 234 234 232 230 230 230 231 233 235 236 238 240 239 240 239 237 236 239 242 245 247 250 252 252 252 252 253 256 258 259 260 261 262 262 262 262 261 262 262 263 263 264 265 266 269 272 273 273 272 272 271 271 272 272
250 249 249 250 250 249 249 249 249 250 250 250 250 251 252 254 254 253 252 252 253 254 255 254 254 253 252 251 249 245 243 240 238 236 234 232 231 231 231 232 232 234 236 237 238 238 238 238 238 240 243 246 248 251 253 253 253 253 255 256 258 259 260 260 261 260 260 260 260 261 262 263 263 263 262 264 267 269 270 273 275 276 275 274 274
249 249 248 248 249 249 249 249 249 249 249 249 249 249 250 251 253 253 253 253 253 253 254 254 254 254 254 253 252 250 249 248 246 243 240 238 235 233 233 233 233 232 233 234 235 236 237 239 240 239 241 245 248 251 253 253 253 253 253 252 253 255 256 257 258 259 259 258 258 259 261 263 263 262 260 260 261 263 267 271 274 276 277 277 276
246 247 248 247 247 248 248 249 249 249 249 249 249 249 249 250 251 252 252 252 252 253 253 254 254 255 255 254 254 253 253 252 252 250 248 245 242 239 237 236 236 236 236 235 234 234 234 236 238 239 241 243 246 249 251 254 255 255 254 252 250 250 252 253 254 255 257 257 257 259 261 262 262 262 261 260 260 263 265 266 268 270 271 273 275
243 244 245 246 246 246 247 248 248 249 249 248 248 248 249 249 250 251 252 252 252 252 252 253 254 254 254 254 255 254 254 254 254 254 253 252 250 247 245 242 240 240 240 239 238 237 236 236 238 241 244 245 245 247 250 253 255 255 256 256 254 251 250 252 253 255 257 258 259 261 261 261 260 261 261 260 261 263 261 259 260 263 265 270 272
244 242 242 244 245 246 246 247 248 248 249 249 249 248 248 249 250 250 251 252 252 252 252 252 253 254 254 254 255 255 255 255 255 255 255 255 254 253 252 251 249 246 243 242 241 241 242 242 243 245 246 246 244 245 247 249 251 253 254 255 255 254 253 254 255 258 260 261 262 263 262 261 260 258 256 255 258 259 257 255 258 261 264 267 266
247 245 243 243 245 246 247 247 247 248 249 249 250 249 249 248 249 250 250 251 251 252 252 252 252 253 253 254 254 255 255 256 256 256 256 256 256 256 256 256 255 253 251 249 247 246 246 246 246 246 246 245 244 244 244 246 247 249 250 251 252 252 252 252 253 256 258 259 262 263 263 263 263 260 255 250 250 253 255 256 259 262 264 263 261
249 247 246 246 247 248 249 248 248 248 248 249 250 250 250 250 250 250 250 250 251 251 252 252 252 252 252 253 254 255 255 256 257 257 257 257 257 257 257 257 257 257 256 255 254 253 251 250 248 247 247 247 246 245 245 245 245 246 247 247 248 249 249 249 248 248 250 253 254 256 257 258 259 260 258 254 250 251 254 256 257 260 262 261 260
250 249 248 249 249 249 251 251 250 249 249 249 250 250 250 251 251 250 250 250 251 251 252 252 253 253 252 253 253 254 255 255 256 257 257 258 258 258 258 258 257 257 257 257 257 256 255 254 252 250 249 248 248 247 247 247 247 247 247 246 246 247 247 248 247 245 246 247 248 249 250 251 251 252 254 256 255 254 255 256 257 258 259 259 259
250 249 249 249 250 250 251 252 253 252 251 251 251 251 250 250 251 251 251 251 251 252 252 252 253 253 253 253 253 254 254 255 255 256 256 257 258 258 258 258 258 258 258 258 257 256 256 256 255 254 253 251 250 250 250 250 250 250 250 249 249 248 248 248 247 247 247 247 247 247 248 248 249 248 249 250 251 250 251 253 255 256 256 256 256
251 250 250 249 250 251 251 252 253 254 254 253 252 252 252 251 251 251 252 252 252 252 252 253 253 254 254 254 254 254 254 254 255 255 256 256 257 257 258 258 259 259 259 259 259 258 258 257 257 257 257 256 255 254 253 253 253 253 253 253 252 251 251 250 249 249 248 248 248 248 249 249 249 249 250 250 249 247 247 249 251 252 252 253 253
254 253 252 251 250 251 251 252 252 253 254 254 254 254 254 253 252 252 252 252 252 252 252 253 253 254 254 254 255 255 255 254 254 255 255 256 256 257 258 258 259 259 259 260 261 261 260 260 259 258 258 258 258 257 256 256 255 255 255 255 255 255 254 253 253 252 251 250 249 249 249 249 249 250 251 251 251 250 249 250 252 251 251 251 251
257 255 254 253 252 251 251 252 252 253 254 254 254 255 255 255 254 253 253 253 253 253 253 253 254 254 254 255 255 255 255 255 255 255 255 256 256 257 257 258 258 259 259 260 260 261 261 261 261 260 259 259 258 258 258 258 257 257 256 256 256 256 256 256 256 255 254 253 251 250 249 249 249 250 251 252 252 251 250 251 253 254 255 255 254
260 258 256 255 254 253 252 251 252 252 253 254 255 255 255 255 255 255 254 254 254 254 254 254 254 254 255 255 255 255 255 255 255 255 255 255 256 257 257 258 258 259 259 259 260 260 260 261 261 260 260 259 258 258 258 258 258 258 257 257 257 257 257 257 256 256 256 256 255 254 252 251 251 251 252 253 253 253 252 253 255 257 258 259 259
264 262 260 258 257 255 254 253 252 252 253 254 255 255 256 256 256 256 256 256 255 255 255 255 255 256 255 255 256 256 256 256 256 256 256 256 256 257 258 258 258 259 259 259 259 259 260 260 260 260 260 260 259 258 258 258 258 258 258 258 258 258 258 257 257 257 257 257 257 256 256 255 254 254 254 255 255 255 255 255 257 258 260 261 262
266 265 264 262 260 258 257 256 254 253 253 253 254 255 255 256 256 256 256 256 256 256 256 256 256 256 257 257 257 257 257 257 257 257 257 257 257 257 258 258 258 258 258 259 259 259 259 260 260 260 260 260 260 259 259 259 258 258 259 259 259 259 259 259 259 259 259 259 259 259 258 258 258 258 257 257 257 257 257 258 259 260 261 263 264
265 265 264 264 263 261 260 258 257 255 254 254 254 254 255 255 255 255 255 256 256 256 256 256 256 257 257 257 257 257 257 257 258 258 258 257 257 257 257 257 257 257 258 258 258 259 259 259 260 260 260 260 260 260 260 260 259 259 259 260 260 260 260 261 261 262 262 262 262 262 262 262 261 261 261 260 260 260 260 260 261 262 263 265 266
262 263 263 263 263 262 261 260 259 257 256 255 255 255 255 255 255 255 255 254 255 255 256 256 256 256 256 256 256 257 257 256 256 257 257 257 257 256 256 256 256 256 257 257 257 257 258 258 258 259 259 259 260 260 260 260 260 260 260 260 261 261 261 261 262 263 264 264 265 265 265 265 265 265 265 265 265 264 264 264 264 264 265 266 267
259 260 260 261 261 262 261 261 260 259 258 257 256 256 255 255 255 255 255 254 253 253 254 254 254 254 254 255 255 255 255 255 255 255 255 255 255 255 255 254 254 254 255 255 255 255 256 256 257 257 258 259 259 260 260 260 261 261 261 261 261 262 262 262 263 263 264 264 265 266 267 268 268 268 268 268 268 269 269 269 268 268 268 268 269
255 256 257 257 258 260 261 261 261 260 260 259 258 257 256 255 255 255 255 255 254 253 252 252 252 253 252 252 252 253 253 253 253 253 252 252 253 253 253 252 252 252 252 252 253 253 254 255 255 256 257 258 259 260 260 261 261 261 262 262 262 263 263 263 263 264 264 265 266 266 267 268 269 270 270 270 271 271 271 272 272 273 273 273 273
253 253 253 253 253 255 258 259 260 260 260 260 259 258 257 256 256 255 255 255 254 253 251 250 250 250 250 250 250 250 250 250 251 251 250 250 250 250 250 251 251 250 250 251 251 252 253 253 254 255 256 257 259 260 260 261 261 262 262 262 263 264 264 264 265 265 265 266 266 267 267 268 269 270 271 271 272 272 272 273 273 274 275 275 275
250 250 250 251 250 248 249 253 255 257 258 258 258 259 258 257 257 256 254 253 253 252 251 249 248 247 248 248 248 247 247 247 248 248 249 249 249 249 249 250 250 250 251 251 251 251 252 253 253 255 256 257 258 259 260 261 261 262 262 263 263 264 265 265 266 266 266 266 267 267 268 268 269 270 271 271 272 273 273 273 273 274 274 275 275
246 246 247 248 248 245 244 245 248 251 253 255 257 258 259 258 258 256 254 252 250 249 249 248 247 246 245 245 245 246 245 245 245 246 247 247 248 248 249 249 250 250 250 251 251 251 252 252 253 254 255 256 257 258 259 260 261 261 262 262 263 263 264 265 266 266 267 267 267 267 268 268 269 269 270 271 271 272 273 273 274 274 274 274 275
244 245 245 245 243 243 244 243 245 247 250 252 255 257 257 257 257 256 254 251 248 246 246 245 244 243 243 243 242 243 243 243 243 244 244 245 246 246 247 248 248 249 250 250 251 251 252 252 252 253 254 255 256 257 259 260 260 261 261 262 262 262 263 263 264 265 266 266 267 267 268 268 268 268 269 269 270 271 271 272 273 273 273 274 274
244 245 245 243 240 240 242 242 243 244 245 247 249 251 252 253 253 253 252 249 246 243 242 242 241 241 240 240 240 240 240 241 241 242 242 242 243 244 245 245 246 247 248 249 250 250 251 251 252 253 254 255 256 257 258 259 260 261 261 261 261 261 262 262 262 263 264 264 265 266 266 267 267 267 268 268 268 269 269 270 270 271 271 272 272
244 244 244 242 239 238 237 237 238 239 239 240 242 245 246 246 246 246 246 245 243 241 240 239 239 238 238 238 238 238 238 239 239 240 241 241 241 242 243 244 245 246 247 248 249 250 250 251 252 252 253 254 255 256 257 258 259 260 260 261 261 261 261 261 261 262 262 263 264 264 265 266 266 267 267 268 268 268 268 269 269 269 269 270 270
243 244 243 241 239 238 236 236 236 238 239 240 242 243 241 238 239 241 241 241 240 239 239 239 238 238 237 236 236 236 236 237 237 238 239 240 241 241 242 242 243 244 245 247 248 249 250 250 251 252 252 253 254 255 256 257 258 258 259 259 260 260 260 261 261 261 262 262 263 263 264 264 265 266 266 267 267 268 268 269 269 269 269 269 270
239 243 243 240 239 239 238 236 238 239 240 241 242 241 237 233 235 237 237 238 239 238 238 239 238 238 237 236 235 235 235 236 236 237 238 239 240 240 241 241 242 243 244 245 247 248 249 250 250 251 252 253 254 255 256 257 257 258 258 259 259 259 260 260 261 261 261 262 262 262 263 263 264 264 265 265 266 267 267 268 268 269 270 270 270
233 237 239 238 237 237 238 237 237 237 237 237 238 237 234 233 234 235 234 234 236 235 235 236 237 237 237 236 236 235 236 236 236 237 238 239 239 239 240 241 242 243 243 244 245 246 247 248 250 251 251 252 253 254 255 256 256 257 257 258 258 259 259 259 260 260 260 260 261 261 262 262 262 263 263 264 264 265 265 266 267 267 269 269 270
229 231 233 233 232 234 236 237 238 238 236 235 235 234 234 235 236 234 232 233 234 232 230 231 234 236 237 238 237 236 236 236 236 237 237 238 239 239 239 241 242 243 243 244 244 245 246 247 249 250 251 251 252 253 253 254 255 255 256 257 257 258 258 258 258 259 259 259 259 260 260 260 261 262 262 263 263 264 264 265 265 266 267 268 269
225 228 230 230 230 231 233 232 234 236 236 234 234 234 233 235 236 234 231 231 233 231 227 227 232 235 237 238 238 236 236 235 235 236 237 237 237 239 240 242 242 243 243 244 244 245 245 246 247 248 249 250 250 251 252 253 254 254 255 256 257 257 258 258 259 259 259 259 259 260 260 260 261 261 262 263 263 264 265 265 266 267 267 268 269
223 226 229 229 229 231 232 229 229 231 232 231 232 233 233 234 235 233 231 230 231 231 228 225 229 232 234 236 237 236 235 235 235 235 234 234 234 238 241 242 243 243 244 244 245 245 245 246 247 248 249 250 251 251 252 253 254 255 256 257 258 258 259 259 260 260 260 261 261 261 262 262 263 263 263 264 265 265 266 267 267 268 268 269 270
220 223 225 225 226 230 232 230 229 230 232 232 233 233 233 234 233 232 231 231 231 231 228 226 228 230 231 233 234 233 231 231 233 233 232 233 235 239 241 241 242 243 244 245 245 244 245 246 247 248 250 251 252 253 254 255 256 257 258 259 260 261 261 261 262 262 263 263 264 264 264 265 266 266 266 267 267 268 268 268 269 269 270 270 271
217 219 221 223 224 226 227 226 227 229 231 232 234 236 236 235 233 231 230 230 231 230 227 226 228 231 231 230 230 231 229 229 230 231 231 233 236 238 239 240 240 241 242 242 241 241 244 247 250 251 252 253 255 256 256 257 258 259 260 261 261 262 263 264 264 264 265 265 266 266 267 267 268 269 269 270 270 270 271 271 271 272 272 272 273
213 216 220 221 221 221 220 218 218 223 227 230 233 237 237 235 233 231 229 229 229 228 227 227 228 231 233 231 228 227 227 227 228 229 229 231 233 235 236 237 238 239 239 240 241 243 247 250 251 252 252 254 256 258 259 259 260 260 260 261 261 262 263 264 265 265 266 267 268 269 269 270 270 271 271 272 272 273 273 274 274 275 275 276 276
209 213 218 219 217 215 214 212 211 216 222 226 229 231 232 232 232 231 229 229 230 228 227 228 229 231 235 235 232 227 225 225 226 228 228 230 233 235 237 237 238 239 240 241 243 245 247 249 250 251 253 255 257 258 259 259 260 260 261 261 262 263 263 264 265 266 268 269 270 271 271 272 272 273 273 274 274 275 275 276 277 277 278 278 279
207 210 214 216 215 212 212 211 211 213 216 218 220 222 223 226 228 229 228 229 230 229 228 229 231 233 235 236 235 232 228 226 226 227 228 229 231 234 236 237 238 240 241 242 243 245 246 248 250 252 254 255 256 256 257 258 258 259 260 260 261 262 263 263 265 268 271 272 272 272 272 272 273 274 274 276 277 278 278 279 280 280 281 281 282
208 208 211 214 213 213 214 213 213 216 215 212 212 213 214 218 222 225 227 228 229 228 227 229 233 235 236 235 234 233 231 230 229 230 230 231 233 234 236 237 239 240 242 243 244 246 247 248 250 251 253 253 254 255 255 256 257 258 259 260 261 262 263 265 268 270 272 272 272 271 272 272 274 275 277 278 279 280 281 282 283 283 284 284 285
210 208 210 211 211 213 216 215 215 218 218 213 209 208 209 212 216 220 224 228 229 227 227 229 233 235 235 235 234 234 233 233 233 233 234 235 236 237 239 240 240 242 243 245 246 248 249 249 250 251 251 252 253 254 255 256 257 258 259 260 261 263 265 267 269 270 270 270 270 271 272 274 276 278 280 281 282 283 284 284 285 286 286 286 287
212 210 210 210 208 210 213 215 215 217 218 216 212 208 208 211 214 217 221 225 229 230 230 231 234 235 235 235 236 236 237 237 237 238 238 239 240 240 241 242 243 244 246 247 249 250 251 251 252 252 253 253 254 255 255 256 257 258 260 261 262 264 265 267 268 269 269 270 270 272 274 276 278 280 281 283 283 284 285 286 286 287 287 288 288
214 213 211 211 210 208 209 211 213 215 216 217 215 211 210 212 216 219 222 225 229 232 234 235 236 236 237 237 237 239 240 240 241 242 243 243 244 244 245 246 247 248 249 250 251 252 253 253 254 254 255 255 256 256 257 258 259 260 261 262 263 264 266 267 268 268 269 270 272 274 276 278 279 281 282 283 284 285 286 287 287 288 289 289 290
215 214 213 214 213 208 205 207 211 212 213 215 216 215 214 215 218 221 223 226 229 232 235 237 238 238 238 239 239 240 241 243 244 245 246 246 247 247 248 249 250 251 251 252 252 253 254 254 255 255 256 257 257 258 259 260 260 261 262 263 264 265 266 267 268 269 271 272 274 276 278 279 280 281 282 283 284 285 286 287 288 289 290 290 291
Height
5691 5692 5694 5696 5699 5700 5700 5702 5704 5707 5709 5711 5714 5716 5717 5720 5722 5725 5728 5730 5733 5737 5741 5744 5746 5748 5750 5753 5758 5760 5762 5764 5766 5767 5768 5769 5771 5774 5776 5777 5779 5780 5781 5783 5784 5786 5788 5789 5789 5790 5791 5792 5793 5795 5796 5798 5799 5801 5803 5803 5804 5805 5804 5804 5805 5806 5807 5807 5807 5807 5809 5810 5811 5811 5812 5814 5815 5815 5814 5815 5815 5815 5816 5817 5817
5687 5688 5689 5690 5692 5694 5696 5697 5699 5701 5703 5705 5707 5709 5711 5713 5715 5718 5720 5723 5725 5728 5732 5737 5740 5741 5743 5747 5749 5752 5756 5759 5761 5762 5763 5764 5766 5769 5771 5771 5773 5775 5776 5777 5778 5779 5781 5782 5783 5784 5785 5786 5787 5789 5790 5792 5794 5796 5797 5797 5798 5799 5799 5799 5800 5801 5802 5802 5801 5802 5804 5806 5806 5806 5807 5809 5811 5810 5810 5810 5810 5810 5811 5811 5812
5682 5683 5683 5685 5687 5689 5691 5692 5694 5696 5697 5699 5701 5703 5705 5707 5709 5711 5713 5715 5717 5719 5723 5728 5731 5734 5737 5741 5744 5746 5749 5752 5754 5756 5758 5759 5760 5762 5764 5764 5765 5768 5770 5771 5772 5773 5774 5775 5777 5778 5779 5780 5781 5783 5784 5786 5788 5790 5790 5791 5792 5793 5793 5794 5795 5796 5796 5797 5797 5799 5801 5801 5802 5803 5803 5804 5805 5806 5806 5805 5805 5805 5805 5806 5806
5677 5678 5678 5679 5682 5684 5686 5687 5689 5691 5693 5695 5696 5697 5699 5701 5703 5705 5707 5708 5710 5712 5715 5719 5723 5727 5730 5733 5737 5741 5743 5746 5748 5749 5751 5753 5754 5755 5755 5756 5757 5759 5762 5764 5765 5766 5768 5770 5771 5772 5773 5775 5776 5776 5778 5779 5781 5783 5784 5785 5787 5788 5789 5789 5791 5791 5791 5792 5793 5796 5796 5796 5798 5799 5799 5799 5799 5800 5801 5801 5800 5799 5800 5800 5800
5670 5672 5673 5674 5676 5678 5681 5682 5683 5685 5688 5689 5691 5692 5693 5694 5696 5698 5700 5702 5704 5706 5708 5711 5715 5718 5722 5725 5728 5733 5737 5741 5743 5743 5744 5745 5747 5749 5748 5749 5750 5751 5754 5756 5758 5760 5761 5763 5764 5765 5767 5768 5770 5770 5771 5773 5775 5777 5778 5780 5781 5783 5784 5785 5786 5787 5787 5787 5788 5790 5791 5791 5793 5794 5793 5794 5795 5795 5795 5795 5795 5794 5794 5794 5795
5664 5667 5668 5669 5670 5672 5674 5677 5678 5679 5681 5683 5685 5687 5688 5689 5690 5691 5693 5696 5697 5700 5702 5704 5708 5710 5713 5717 5720 5724 5728 5732 5736 5739 5738 5737 5738 5741 5742 5743 5745 5745 5746 5749 5751 5752 5754 5755 5757 5758 5759 5761 5764 5765 5766 5767 5769 5771 5773 5775 5776 5777 5779 5780 5780 5782 5782 5782 5783 5784 5785 5786 5787 5787 5787 5788 5789 5789 5789 5789 5790 5789 5787 5788 5788
5656 5660 5662 5663 5664 5666 5668 5670 5672 5674 5675 5677 5679 5681 5683 5684 5685 5686 5687 5690 5691 5693 5695 5698 5701 5704 5707 5709 5712 5715 5719 5723 5728 5731 5731 5730 5730 5732 5734 5737 5739 5739 5740 5741 5742 5745 5747 5748 5749 5751 5753 5754 5756 5759 5760 5761 5763 5765 5767 5769 5770 5770 5772 5774 5775 5777 5777 5776 5777 5778 5779 5780 5780 5781 5781 5781 5781 5782 5783 5784 5784 5783 5782 5782 5782
5649 5653 5655 5656 5658 5660 5661 5663 5665 5668 5669 5671 5673 5675 5677 5679 5680 5682 5682 5684 5686 5687 5689 5691 5694 5697 5700 5702 5705 5708 5711 5714 5717 5721 5722 5723 5723 5725 5728 5730 5733 5734 5735 5734 5735 5737 5740 5741 5742 5744 5746 5747 5749 5751 5753 5755 5756 5758 5760 5762 5763 5764 5766 5767 5769 5770 5771 5770 5771 5772 5773 5775 5774 5774 5775 5773 5773 5774 5775 5777 5777 5777 5777 5777 5777
5644 5646 5648 5649 5651 5652 5654 5656 5658 5661 5663 5665 5667 5668 5670 5672 5674 5677 5678 5678 5680 5681 5683 5685 5687 5690 5693 5695 5698 5700 5703 5706 5708 5711 5713 5714 5716 5719 5721 5724 5726 5729 5729 5729 5729 5731 5734 5734 5736 5738 5739 5740 5741 5743 5746 5748 5749 5750 5753 5755 5756 5757 5759 5761 5762 5763 5764 5764 5765 5765 5766 5769 5769 5770 5769 5765 5765 5766 5767 5768 5769 5770 5771 5772 5771
5637 5639 5640 5641 5643 5645 5646 5648 5651 5653 5657 5658 5660 5661 5662 5664 5668 5671 5673 5673 5674 5676 5678 5680 5681 5683 5685 5688 5691 5693 5696 5699 5700 5702 5705 5707 5709 5711 5713 5716 5718 5721 5723 5724 5724 5726 5727 5728 5730 5732 5733 5735 5735 5736 5739 5742 5743 5744 5746 5748 5749 5750 5751 5754 5755 5755 5756 5757 5758 5759 5761 5763 5763 5764 5763 5759 5758 5759 5759 5759 5760 5762 5764 5766 5766
5630 5631 5632 5634 5635 5637 5638 5640 5643 5645 5649 5651 5652 5655 5656 5657 5660 5663 5666 5668 5669 5671 5672 5674 5676 5677 5679 5681 5683 5686 5689 5691 5693 5695 5697 5699 5700 5702 5704 5706 5709 5712 5714 5716 5718 5720 5721 5722 5724 5725 5727 5729 5730 5731 5732 5734 5737 5739 5740 5740 5741 5742 5744 5746 5747 5748 5749 5750 5751 5752 5754 5756 5757 5757 5757 5756 5754 5753 5752 5752 5752 5753 5756 5759 5760
5622 5622 5624 5626 5627 5627 5629 5632 5634 5636 5640 5643 5645 5647 5649 5650 5652 5654 5658 5660 5663 5665 5666 5668 5670 5672 5674 5675 5676 5679 5681 5683 5685 5687 5688 5690 5691 5692 5694 5697 5700 5703 5706 5708 5709 5712 5714 5716 5717 5718 5720 5722 5723 5725 5726 5727 5730 5732 5732 5733 5734 5735 5736 5737 5738 5740 5742 5743 5745 5746 5747 5749 5750 5750 5751 5750 5749 5747 5747 5747 5746 5747 5748 5749 5751
5612 5612 5614 5617 5618 5619 5621 5624 5626 5628 5631 5634 5637 5639 5641 5643 5644 5646 5649 5652 5654 5657 5659 5661 5663 5666 5668 5668 5670 5672 5675 5676 5677 5678 5680 5681 5683 5684 5686 5689 5691 5694 5697 5699 5700 5703 5705 5707 5709 5711 5713 5715 5716 5718 5719 5720 5723 5724 5725 5727 5727 5727 5729 5730 5731 5732 5734 5736 5738 5739 5741 5743 5743 5743 5744 5744 5743 5741 5741 5742 5742 5742 5742 5743 5744
5601 5602 5605 5608 5610 5612 5614 5616 5617 5620 5623 5626 5628 5631 5634 5635 5636 5638 5640 5643 5646 5649 5651 5653 5655 5658 5660 5662 5663 5666 5668 5669 5670 5671 5672 5674 5675 5677 5678 5680 5683 5685 5687 5689 5691 5694 5697 5699 5700 5702 5703 5706 5708 5710 5712 5713 5715 5716 5718 5720 5721 5721 5722 5723 5723 5725 5727 5728 5730 5732 5735 5736 5736 5737 5737 5737 5737 5736 5735 5737 5738 5737 5737 5738 5738
5589 5593 5596 5598 5601 5605 5607 5609 5610 5612 5614 5616 5619 5622 5625 5627 5628 5630 5632 5634 5637 5640 5642 5645 5647 5649 5651 5654 5656 5658 5660 5662 5663 5664 5665 5667 5668 5670 5671 5673 5674 5676 5677 5680 5682 5684 5686 5689 5691 5692 5694 5695 5697 5699 5701 5704 5706 5707 5709 5712 5714 5715 5716 5716 5717 5719 5720 5721 5722 5724 5728 5729 5729 5730 5732 5732 5732 5731 5731 5731 5732 5731 5731 5732 5732
5578 5583 5589 5592 5594 5597 5599 5601 5602 5604 5605 5607 5609 5612 5616 5618 5620 5622 5623 5626 5629 5631 5633 5637 5640 5641 5643 5645 5648 5650 5652 5654 5656 5658 5659 5660 5661 5663 5664 5665 5666 5667 5669 5671 5673 5675 5676 5678 5680 5682 5684 5685 5687 5689 5691 5694 5696 5698 5700 5702 5705 5707 5708 5709 5711 5712 5713 5714 5715 5717 5720 5720 5721 5723 5726 5727 5727 5726 5725 5725 5725 5724 5725 5726 5727
5570 5575 5582 5584 5584 5585 5587 5590 5592 5595 5597 5598 5600 5603 5606 5609 5610 5612 5614 5617 5620 5622 5624 5628 5631 5633 5635 5637 5639 5641 5644 5646 5649 5651 5652 5653 5654 5656 5657 5658 5659 5660 5661 5663 5665 5666 5667 5668 5670 5672 5675 5677 5679 5681 5683 5685 5686 5688 5690 5692 5695 5697 5699 5700 5702 5704 5705 5707 5708 5710 5711 5712 5713 5715 5717 5719 5720 5719 5718 5718 5718 5717 5718 5719 5720
5560 5567 5571 5570 5573 5575 5576 5579 5582 5585 5588 5590 5592 5594 5597 5599 5600 5602 5605 5609 5611 5613 5616 5619 5621 5623 5626 5629 5631 5633 5635 5638 5640 5642 5644 5645 5647 5648 5649 5650 5651 5652 5653 5655 5656 5657 5658 5659 5661 5663 5666 5669 5671 5673 5674 5676 5678 5679 5680 5682 5685 5687 5689 5691 5693 5695 5696 5698 5700 5701 5703 5704 5705 5707 5708 5709 5710 5710 5710 5711 5710 5710 5710 5711 5712
5550 5556 5559 5559 5563 5565 5566 5569 5571 5575 5578 5580 5582 5584 5586 5588 5590 5592 5596 5600 5602 5604 5607 5609 5610 5613 5617 5620 5622 5624 5627 5629 5631 5633 5635 5637 5638 5640 5641 5642 5643 5644 5645 5646 5646 5648 5649 5651 5653 5655 5658 5660 5662 5664 5666 5667 5669 5671 5672 5674 5676 5678 5680 5681 5683 5685 5687 5689 5690 5692 5693 5695 5696 5698 5699 5700 5700 5700 5701 5702 5701 5700 5701 5702 5703
5539 5545 5548 5551 5553 5554 5557 5559 5561 5564 5566 5569 5572 5573 5576 5578 5580 5583 5586 5589 5591 5594 5597 5599 5601 5604 5606 5609 5611 5614 5617 5619 5621 5623 5626 5628 5630 5631 5633 5634 5635 5637 5637 5636 5637 5639 5641 5643 5646 5648 5649 5651 5653 5655 5657 5659 5661 5662 5664 5665 5667 5669 5671 5672 5674 5676 5677 5679 5681 5682 5683 5685 5687 5688 5689 5690 5690 5690 5691 5692 5691 5691 5692 5693 5693
5530 5535 5537 5540 5544 5545 5547 5549 5551 5553 5555 5559 5562 5563 5565 5568 5571 5574 5576 5578 5581 5584 5588 5590 5592 5594 5596 5599 5601 5604 5607 5609 5611 5614 5617 5618 5620 5622 5624 5626 5626 5628 5629 5628 5629 5631 5633 5635 5637 5639 5641 5643 5645 5647 5649 5651 5652 5654 5655 5657 5658 5660 5662 5663 5665 5666 5668 5670 5671 5673 5674 5676 5677 5678 5679 5679 5679 5680 5681 5681 5681 5682 5682 5683 5683
5517 5521 5524 5528 5531 5534 5537 5539 5542 5543 5545 5548 5551 5553 5555 5557 5559 5562 5565 5568 5571 5574 5577 5580 5582 5584 5586 5589 5591 5593 5596 5598 5601 5605 5607 5609 5610 5612 5615 5616 5618 5619 5620 5621 5622 5623 5624 5625 5627 5630 5632 5634 5636 5638 5640 5642 5644 5645 5646 5648 5649 5651 5652 5654 5656 5657 5659 5660 5661 5663 5664 5666 5667 5668 5668 5668 5669 5670 5671 5671 5670 5671 5671 5672 5673
5504 5507 5511 5514 5518 5521 5525 5528 5531 5533 5535 5537 5539 5542 5544 5546 5548 5551 5555 5558 5561 5563 5566 5568 5571 5574 5576 5578 5580 5582 5585 5588 5591 5594 5597 5599 5601 5602 5604 5606 5608 5610 5611 5613 5614 5615 5615 5617 5618 5620 5622 5624 5626 5628 5630 5632 5634 5635 5637 5639 5640 5642 5643 5645 5647 5648 5649 5650 5652 5653 5654 5656 5657 5658 5658 5658 5659 5660 5660 5660 5660 5660 5660 5661 5662
5490 5493 5497 5500 5504 5508 5512 5515 5518 5522 5525 5526 5528 5530 5532 5535 5538 5540 5544 5547 5550 5552 5554 5557 5560 5562 5565 5568 5570 5572 5575 5577 5581 5583 5586 5588 5590 5593 5594 5596 5598 5600 5601 5603 5605 5606 5607 5608 5610 5611 5613 5615 5616 5619 5621 5622 5624 5626 5628 5629 5631 5633 5634 5635 5637 5638 5639 5641 5642 5643 5644 5645 5646 5647 5648 5648 5649 5649 5649 5650 5649 5649 5649 5650 5650
5475 5479 5483 5486 5490 5494 5497 5501 5505 5509 5513 5516 5517 5519 5521 5524 5527 5530 5533 5535 5538 5540 5543 5546 5549 5551 5554 5557 5560 5563 5565 5567 5570 5573 5575 5578 5580 5582 5584 5586 5588 5590 5591 5593 5595 5597 5598 5599 5601 5602 5604 5606 5607 5609 5611 5613 5615 5617 5618 5620 5622 5623 5624 5626 5627 5628 5629 5631 5631 5632 5634 5635 5636 5636 5637 5638 5638 5639 5639 5640 5640 5639 5639 5639 5639
5462 5465 5469 5472 5476 5480 5483 5487 5492 5496 5500 5503 5506 5509 5510 5512 5515 5519 5521 5524 5526 5529 5532 5535 5538 5541 5544 5547 5550 5553 5555 5557 5559 5562 5564 5567 5570 5572 5574 5576 5578 5580 5582 5584 5585 5587 5588 5590 5591 5593 5595 5596 5597 5599 5602 5604 5606 5607 5609 5611 5612 5614 5615 5616 5617 5618 5620 5621 5622 5622 5623 5624 5625 5626 5627 5628 5628 5629 5629 5630 5630 5629 5629 5629 5629
5450 5452 5456 5460 5463 5466 5469 5474 5478 5482 5486 5489 5493 5497 5500 5502 5504 5507 5510 5513 5516 5519 5521 5524 5528 5531 5534 5536 5539 5542 5544 5547 5549 5551 5554 5556 5559 5562 5564 5566 5569 5571 5572 5574 5576 5577 5579 5580 5582 5583 5584 5586 5587 5590 5592 5594 5596 5597 5599 5601 5602 5604 5605 5606 5608 5609 5610 5611 5612 5612 5613 5614 5615 5616 5616 5617 5618 5619 5620 5620 5620 5620 5620 5620 5620
5439 5441 5444 5448 5451 5453 5457 5460 5464 5468 5472 5476 5480 5484 5488 5492 5494 5496 5499 5502 5506 5509 5512 5514 5517 5521 5523 5526 5529 5532 5534 5537 5539 5541 5544 5546 5549 5551 5554 5557 5559 5561 5563 5564 5566 5568 5569 5571 5572 5573 5575 5575 5577 5580 5583 5585 5586 5588 5589 5591 5592 5594 5595 5597 5598 5599 5600 5601 5602 5602 5603 5604 5605 5606 5607 5607 5608 5609 5609 5610 5610 5611 5611 5612 5612
5428 5430 5433 5437 5440 5442 5445 5448 5452 5456 5459 5463 5467 5471 5476 5480 5483 5486 5488 5491 5495 5499 5502 5505 5508 5510 5513 5516 5519 5522 5525 5527 5529 5532 5534 5537 5539 5542 5544 5546 5549 5551 5553 5555 5557 5559 5560 5562 5563 5565 5566 5567 5568 5570 5572 5575 5576 5578 5580 5581 5582 5584 5585 5587 5588 5589 5591 5591 5592 5593 5593 5594 5595 5596 5597 5598 5598 5599 5600 5600 5600 5601 5601 5602 5602
5415 5419 5423 5426 5430 5433 5435 5438 5441 5444 5448 5451 5454 5459 5464 5468 5473 5477 5479 5481 5485 5488 5491 5495 5499 5501 5504 5507 5510 5513 5516 5518 5521 5523 5525 5528 5530 5532 5534 5537 5539 5541 5543 5546 5548 5550 5552 5553 5555 5556 5557 5558 5560 5561 5563 5565 5567 5568 5570 5571 5573 5574 5575 5577 5578 5580 5581 5582 5583 5584 5584 5585 5586 5586 5587 5588 5589 5590 5590 5591 5591 5591 5592 5592 5592
5404 5408 5412 5416 5420 5424 5426 5429 5431 5434 5437 5440 5443 5447 5452 5456 5461 5466 5470 5472 5475 5478 5481 5485 5489 5492 5495 5498 5500 5503 5506 5509 5512 5514 5516 5519 5521 5523 5526 5528 5530 5532 5534 5537 5539 5541 5543 5545 5547 5548 5549 5550 5552 5553 5554 5556 5557 5559 5561 5562 5564 5565 5566 5568 5569 5570 5572 5573 5574 5575 5576 5576 5577 5577 5578 5579 5579 5580 5581 5582 5582 5583 5583 5583 5583
5394 5397 5402 5406 5410 5414 5417 5420 5423 5425 5428 5431 5434 5437 5441 5445 5450 5454 5459 5463 5466 5469 5472 5475 5478 5482 5485 5488 5491 5494 5497 5500 5503 5505 5508 5511 5513 5515 5518 5520 5522 5524 5526 5528 5530 5533 5535 5537 5539 5540 5541 5542 5544 5545 5546 5547 5549 5551 5552 5554 5555 5556 5558 5559 5560 5561 5562 5564 5565 5566 5567 5568 5568 5569 5570 5570 5571 5571 5572 5573 5573 5574 5574 5574 5574
5384 5387 5391 5397 5402 5405 5408 5411 5414 5417 5420 5423 5426 5429 5432 5436 5439 5443 5447 5452 5456 5459 5462 5465 5468 5472 5475 5479 5482 5485 5488 5491 5494 5497 5500 5503 5505 5507 5510 5512 5514 5516 5518 5520 5522 5524 5526 5528 5530 5532 5533 5535 5536 5537 5538 5539 5541 5542 5544 5545 5547 5548 5550 5551 5552 5553 5554 5555 5556 5557 5558 5559 5559 5561 5561 5562 5563 5563 5564 5565 5565 5565 5566 5566 5566
5373 5376 5380 5386 5392 5396 5399 5401 5405 5408 5412 5416 5418 5421 5425 5428 5430 5434 5437 5441 5445 5449 5452 5455 5459 5462 5465 5469 5473 5476 5479 5483 5486 5488 5491 5494 5497 5499 5501 5504 5506 5508 5510 5512 5514 5516 5518 5520 5522 5524 5526 5527 5528 5529 5530 5532 5533 5534 5535 5537 5538 5540 5541 5543 5544 5545 5546 5547 5548 5550 5550 5550 5551 5552 5553 5553 5554 5555 5555 5556 5557 5557 5557 5557 5557
5362 5365 5369 5375 5382 5387 5390 5393 5396 5400 5404 5408 5410 5414 5417 5420 5423 5426 5429 5432 5435 5439 5442 5446 5449 5453 5456 5460 5464 5467 5470 5474 5477 5480 5483 5485 5488 5490 5493 5495 5498 5500 5502 5504 5507 5509 5511 5513 5515 5517 5518 5519 5520 5522 5523 5524 5526 5527 5528 5529 5530 5531 5533 5534 5536 5537 5538 5539 5541 5542 5542 5542 5543 5544 5544 5545 5545 5546 5546 5547 5547 5548 5548 5548 5548
5353 5356 5360 5366 5372 5377 5380 5384 5388 5392 5397 5400 5403 5406 5410 5413 5416 5419 5422 5424 5427 5431 5434 5438 5441 5445 5448 5452 5456 5459 5462 5465 5468 5471 5474 5477 5480 5482 5485 5487 5490 5492 5494 5497 5499 5501 5503 5506 5507 5508 5509 5511 5513 5514 5515 5517 5518 5519 5520 5521 5522 5523 5525 5526 5527 5529 5530 5531 5532 5533 5534 5534 5535 5535 5536 5536 5537 5537 5537 5538 5538 5538 5538 5538 5538
5345 5348 5352 5357 5363 5367 5371 5376 5380 5385 5389 5392 5396 5399 5403 5406 5409 5412 5415 5418 5420 5424 5427 5431 5434 5437 5441 5444 5448 5451 5454 5457 5461 5464 5466 5469 5472 5475 5477 5479 5481 5484 5487 5490 5492 5494 5496 5498 5499 5500 5501 5504 5505 5507 5508 5509 5510 5511 5512 5513 5514 5515 5517 5518 5520 5521 5522 5523 5524 5525 5525 5526 5526 5527 5527 5528 5528 5528 5529 5529 5529 5529 5528 5528 5528
5337 5341 5345 5350 5355 5359 5363 5368 5372 5377 5381 5386 5389 5392 5396 5398 5402 5405 5408 5411 5414 5417 5421 5424 5427 5431 5433 5437 5440 5444 5447 5450 5453 5456 5459 5462 5465 5467 5469 5471 5473 5476 5479 5482 5484 5486 5488 5490 5491 5492 5494 5496 5498 5499 5500 5501 5502 5504 5505 5506 5506 5507 5509 5510 5511 5512 5513 5514 5515 5516 5516 5517 5518 5518 5519 5519 5520 5520 5520 5521 5521 5520 5520 5519 5519
5331 5335 5338 5343 5347 5351 5355 5360 5365 5369 5374 5379 5382 5386 5389 5391 5395 5398 5401 5404 5408 5411 5414 5418 5421 5424 5427 5430 5433 5437 5440 5443 5446 5449 5452 5455 5458 5460 5461 5463 5466 5469 5471 5474 5476 5479 5481 5483 5484 5485 5486 5488 5490 5491 5492 5494 5495 5496 5497 5498 5499 5500 5501 5502 5503 5504 5505 5506 5507 5507 5508 5509 5509 5510 5510 5511 5511 5511 5512 5512 5512 5512 5512 5511 5510
5324 5328 5332 5336 5341 5345 5348 5353 5358 5362 5367 5371 5375 5379 5382 5384 5388 5391 5394 5398 5401 5405 5408 5412 5415 5418 5421 5424 5427 5430 5433 5437 5440 5443 5446 5449 5451 5453 5455 5457 5460 5462 5464 5467 5469 5472 5474 5476 5477 5478 5479 5480 5482 5483 5484 5486 5487 5488 5489 5490 5491 5492 5493 5494 5495 5496 5497 5497 5498 5499 5499 5500 5501 5501 5501 5502 5502 5503 5503 5503 5503 5503 5503 5503 5503
5318 5323 5327 5331 5335 5339 5343 5347 5352 5356 5359 5363 5368 5372 5375 5378 5381 5384 5388 5391 5395 5398 5402 5405 5409 5412 5415 5418 5421 5424 5427 5430 5433 5436 5440 5443 5445 5446 5448 5451 5453 5456 5458 5460 5462 5465 5467 5469 5470 5471 5472 5473 5475 5476 5477 5479 5480 5481 5482 5483 5484 5485 5486 5487 5487 5488 5489 5489 5490 5490 5491 5491 5492 5493 5493 5493 5493 5494 5494 5494 5494 5494 5494 5494 5494
5313 5318 5322 5326 5330 5334 5337 5341 5345 5349 5352 5356 5360 5365 5369 5372 5375 5378 5381 5384 5388 5392 5396 5399 5402 5406 5410 5412 5415 5418 5421 5424 5427 5431 5433 5436 5438 5440 5442 5445 5447 5449 5452 5454 5456 5458 5460 5462 5464 5465 5465 5467 5469 5470 5471 5472 5473 5475 5476 5476 5477 5477 5478 5479 5480 5480 5481 5481 5482 5482 5483 5483 5483 5484 5484 5484 5485 5485 5485 5485 5485 5485 5485 5485 5485
5308 5314 5318 5321 5325 5329 5332 5335 5338 5342 5346 5350 5354 5358 5363 5366 5369 5372 5375 5378 5382 5386 5389 5393 5396 5399 5403 5406 5409 5412 5415 5418 5421 5424 5427 5429 5431 5434 5436 5439 5441 5443 5445 5447 5450 5452 5454 5455 5457 5458 5459 5461 5462 5464 5465 5466 5467 5468 5469 5469 5470 5470 5471 5472 5472 5473 5473 5473 5474 5474 5475 5475 5475 5475 5475 5475 5475 5475 5475 5475 5475 5475 5475 5475 5475
5303 5309 5313 5317 5321 5324 5327 5330 5333 5336 5340 5345 5349 5353 5357 5361 5364 5367 5369 5373 5376 5380 5383 5387 5390 5393 5396 5399 5402 5405 5408 5411 5415 5417 5420 5422 5425 5427 5430 5432 5434 5437 5439 5441 5443 5445 5447 5449 5450 5451 5453 5455 5456 5457 5458 5459 5460 5461 5461 5462 5463 5464 5464 5464 5465 5465 5465 5465 5466 5467 5467 5467 5467 5466 5466 5466 5466 5466 5466 5466 5465 5465 5465 5465 5464
5299 5304 5309 5313 5316 5319 5323 5325 5328 5331 5335 5339 5344 5348 5351 5355 5358 5361 5364 5367 5370 5374 5377 5380 5384 5387 5389 5392 5396 5398 5401 5404 5407 5410 5413 5416 5418 5421 5423 5426 5428 5430 5432 5435 5437 5439 5441 5442 5443 5444 5446 5448 5449 5450 5450 5451 5452 5453 5454 5455 5456 5456 5457 5457 5457 5457 5458 5458 5458 5459 5459 5459 5458 5458 5458 5457 5457 5457 5456 5456 5456 5455 5455 5454 5454
5295 5300 5305 5308 5312 5315 5318 5321 5324 5327 5330 5334 5338 5342 5346 5349 5352 5355 5358 5361 5364 5368 5371 5374 5377 5380 5383 5386 5389 5392 5394 5397 5400 5403 5406 5409 5411 5414 5416 5419 5421 5424 5426 5428 5429 5431 5433 5434 5435 5437 5438 5440 5442 5443 5443 5443 5445 5446 5447 5447 5448 5449 5450 5450 5450 5450 5450 5450 5450 5450 5451 5450 5450 5449 5449 5449 5448 5447 5447 5446 5446 5445 5445 5444 5444
5292 5296 5301 5305 5308 5311 5314 5317 5320 5323 5326 5329 5333 5336 5340 5343 5346 5350 5352 5355 5359 5362 5365 5368 5371 5373 5376 5379 5382 5385 5388 5390 5393 5396 5399 5402 5404 5407 5409 5412 5414 5416 5418 5420 5421 5423 5424 5426 5427 5429 5430 5432 5433 5435 5435 5436 5437 5438 5439 5439 5440 5441 5441 5442 5442 5442 5442 5441 5441 5442 5442 5442 5441 5440 5440 5440 5439 5439 5438 5437 5436 5436 5435 5434 5433
5288 5293 5297 5301 5304 5307 5310 5313 5316 5319 5322 5325 5328 5331 5334 5337 5341 5344 5347 5350 5353 5356 5359 5362 5365 5367 5370 5373 5376 5379 5382 5384 5387 5389 5392 5395 5397 5400 5402 5404 5406 5408 5410 5411 5413 5414 5416 5418 5419 5421 5422 5424 5425 5426 5428 5428 5428 5430 5431 5431 5432 5432 5433 5434 5434 5434 5433 5433 5433 5433 5433 5433 5432 5432 5431 5431 5430 5430 5429 5428 5427 5426 5426 5425 5423
5285 5289 5294 5298 5301 5304 5307 5310 5312 5315 5318 5321 5324 5326 5329 5332 5336 5339 5342 5346 5348 5351 5354 5357 5359 5362 5365 5368 5371 5373 5376 5378 5381 5383 5386 5388 5390 5393 5395 5397 5399 5400 5402 5403 5405 5406 5408 5409 5411 5413 5414 5416 5417 5419 5420 5420 5421 5422 5423 5423 5424 5425 5425 5425 5425 5425 5425 5425 5425 5425 5424 5424 5424 5423 5422 5422 5421 5420 5419 5418 5418 5416 5415 5415 5413
5282 5286 5290 5294 5298 5301 5303 5306 5309 5312 5314 5317 5320 5323 5325 5328 5332 5335 5338 5341 5344 5347 5349 5352 5355 5357 5360 5363 5365 5368 5370 5373 5375 5377 5379 5382 5384 5386 5388 5390 5391 5393 5394 5396 5397 5399 5400 5402 5404 5405 5406 5408 5410 5411 5412 5412 5413 5414 5414 5415 5416 5417 5417 5417 5417 5417 5417 5417 5417 5416 5416 5415 5415 5414 5414 5413 5412 5411 5410 5409 5408 5406 5405 5404 5403
5279 5283 5287 5291 5294 5297 5300 5303 5306 5308 5311 5314 5316 5319 5322 5325 5328 5331 5334 5337 5339 5342 5345 5348 5350 5353 5355 5358 5360 5362 5365 5367 5369 5371 5373 5375 5377 5379 5381 5383 5384 5385 5387 5389 5390 5392 5393 5395 5396 5398 5399 5400 5402 5403 5404 5404 5405 5406 5406 5407 5408 5409 5409 5409 5409 5409 5409 5409 5409 5408 5407 5407 5406 5405 5405 5404 5403 5402 5401 5400 5399 5397 5395 5394 5393